Вернуться в каталог

COSMOS 2216

АктивенВоенныеPO
NORAD 22187·PAYLOAD·🇷🇺 Russia

Запущен Oct 20, 1992 с Plesetsk Cosmodrome

Loading…

Ближайшие Пролёты (ближайшие 24 часа)

TLE

СвежийSource: Space-Track

Эпоха: Sep 14, 2026, 02:16 UTC

1 22187U 92068F   26257.09464617  .00000017  00000-0  38134-4 0  9995
2 22187  82.5923 287.2099 0004237 303.0708  56.9976 12.62587658562112

Отслеживайте COSMOS 2216 в реальном времени с AllMySat

Download on the App Store